Regional Weather Roundup
Issued by NWS Sioux Falls, SD

Home | Current Version | Previous Version | Text Only | Print | Product List | Glossary On
Versions: 1 2 3 4 5 6 7 8 9 10 11 12 13 14 15 16 17 18 19 20 21 22 23 24 25 26 27 28 29 30 31 32 33 34 35 36 37 38 39 40 41 42 43 44 45 46 47 48 49 50
000
ASUS43 KFSD 140010
RWRFSD

WEATHER ROUNDUP FOR SE SOUTH DAKOTA/SW MINNESOTA/NW IOWA
NATIONAL WEATHER SERVICE SIOUX FALLS SD
600 PM CST WED DEC 13 2017

NOTE: "FAIR" INDICATES FEW OR NO CLOUDS BELOW 12,000 FEET WITH NO
SIGNIFICANT WEATHER AND OR OBSTRUCTIONS TO VISIBILITY.


SDZ038>040-050-052>070-140100-
SOUTHEAST SOUTH DAKOTA

CITY           SKY/WX    TMP DP  RH WIND       PRES   REMARKS
BROOKINGS      FLURRIES  30  29  96 N12       29.88R WCI  20
CHAMBERLAIN    PTCLDY    37  29  72 N15G22    29.97R
6HR MIN TEMP:  37; 6HR MAX TEMP:  47;

HURON          CLOUDY    36  26  67 NW14G22   29.94R
6HR MIN TEMP:  36; 6HR MAX TEMP:  39;

MADISON        CLOUDY    32  32 100 N21G26    29.89R WCI  20
MITCHELL       CLOUDY    38  26  62 NW18G28   29.95R
6HR MIN TEMP:  38; 6HR MAX TEMP:  41;

SIOUX FALLS    CLOUDY    35  30  82 N15       29.90R WCI  25
6HR MIN TEMP:  35; 6HR MAX TEMP:  39;

WINNER         FAIR      41  26  55 N14       29.97R
YANKTON        CLOUDY    38  25  59 NW22G33   29.93R
$$

MNZ071-072-080-081-089-090-097-098-140100-
SOUTHWEST MINNESOTA

CITY           SKY/WX    TMP DP  RH WIND       PRES   REMARKS
FAIRMONT       CLOUDY    29  21  72 N25G38    29.82R WCI  14
JACKSON        CLOUDY    30  23  74 MISG      29.82R
LUVERNE        CLOUDY    32  28  86 N16       29.88R WCI  21
MARSHALL       CLOUDY    30  27  88 N16       29.87R WCI  19
6HR MIN TEMP:  30; 6HR MAX TEMP:  33;

MONTEVIDEO     CLOUDY    27  21  80 N25G32    29.89R WCI  11
PIPESTONE      CLOUDY    30  27  86 N13G21    29.85R WCI  20
REDWOOD FALLS  CLOUDY    29  20  69 N15G24    29.86R WCI  18
WINDOM           N/A     28  16  59 NW17G28   29.84R WCI  16
WORTHINGTON    CLOUDY    30  26  85 NW17G23   29.85R WCI  18
$$

IAZ001>003-012>014-020>022-031-032-NEZ013-014-SDZ071-140100-
NORTHWEST IOWA

CITY           SKY/WX    TMP DP  RH WIND       PRES   REMARKS
CHEROKEE       CLOUDY    35  30  80 N17G25    29.87R WCI  25
DENISON        CLOUDY    37  28  70 N14       29.88R
ESTHERVILLE    CLOUDY    30  22  72 NW31G46   29.81R WCI  15
LE MARS        CLOUDY    37  30  75 N14G21    29.89R
ORANGE CITY    CLOUDY    36  34  93 N13G20    29.88R
SHELDON        CLOUDY    34  27  75 N24G32    29.86R WCI  21
SIOUX CITY     CLOUDY    40  26  57 NW21G26   29.89R
6HR MIN TEMP:  40; 6HR MAX TEMP:  45;

SPENCER        CLOUDY    33  24  69 N23G29    29.86R WCI  21
6HR MIN TEMP:  33; 6HR MAX TEMP:  37;

STORM LAKE     CLOUDY    34  28  80 N18       29.85R WCI  23
$$

ABBREVIATIONS USED IN REMARKS
   TC - TEMPERATURE IN CELSIUS
  WCI - WIND CHILL INDEX
   HX - HEAT INDEX
  VSB - VISIBILITY





USA.gov is the U.S. government's official web portal to all federal, state and local government web resources and services.